Regional Weather Roundup
Issued by NWS

Home | Current Version | Previous Version | Text Only | Print | Product List | Glossary Off
Versions: 1 2 3 4 5 6 7 8 9 10 11 12 13 14 15 16 17 18 19 20 21 22 23 24 25 26 27 28 29 30 31 32 33 34 35 36 37 38 39 40 41 42 43 44 45 46 47 48 49 50

000
ASUS45 KBOU 040707
RWRCO

WEATHER ROUNDUP FOR COLORADO
NATIONAL WEATHER SERVICE DENVER/BOULDER CO
100 AM MDT MON MAY 04 2015

NOTE: "FAIR" INDICATES FEW OR NO CLOUDS BELOW 12000 FEET WITH NO
SIGNIFICANT WEATHER AND/OR OBSTRUCTIONS TO VISIBILITY.

COZ001>005-013-030-031-040800-
...NORTHWEST COLORADO...

CITY           SKY/WX    TMP DP  RH WIND       PRES   REMARKS
CRAIG          CLOUDY    50  43  77 E5        30.09R
HAYDEN         CLOUDY    48  39  71 S6        30.10S
MEEKER         CLOUDY    48  42  80 NE10      30.08F
MOUNT WERNER   NOT AVBL
STEAMBOAT SPGS CLOUDY    45  37  75 CALM      30.11S
WALDEN         CLOUDY    39  34  81 CALM      30.16S
$$

COZ006>008-011-040800-
...WEST CENTRAL VALLEYS...

CITY           SKY/WX    TMP DP  RH WIND       PRES   REMARKS
GRAND JUNCTION PTCLDY    56  42  59 E14       30.00S
MONTROSE       MOCLDY    49  39  68 S5        30.08S
EAGLE          CLOUDY    45  43  93 E6        30.14S
RIFLE          LGT RAIN  51  48  89 SE10      30.09F
DELTA          MOCLDY    51  46  82 NE6       30.05R
NUCLA          MOCLDY    52  37  58 MISG      30.08R
$$

COZ017>023-064>068-040800-
...SOUTHWEST COLORADO...

CITY           SKY/WX    TMP DP  RH WIND       PRES   REMARKS
DURANGO        CLEAR     45  37  73 NW3       30.09R
CORTEZ         CLEAR     44  36  73 SE5       30.05R
PAGOSA SPRINGS PTCLDY    40  39  95 CALM      30.15S
TELLURIDE      CLOUDY    41  36  84 CALM      30.20S
WOLF CREEK PAS NOT AVBL
$$

COZ009-010-012-014-032>034-037-058>063-040800-
...CENTRAL COLORADO...

CITY           SKY/WX    TMP DP  RH WIND       PRES   REMARKS
ASPEN          CLOUDY    42  37  82 S3        30.15F
BUENA VISTA    NOT AVBL
COPPER MTN     CLOUDY    36  28  75 S9        30.31S
BERTHOUD PASS  CLOUDY    28  19  69 SE18      30.35S HAZE    WCI  16
COTTONWOOD PAS LGT RAIN  43  34  70 NW5       30.25S
GUNNISON       CLOUDY    43  36  75 NE7       30.21S
KREMMLING      MOCLDY    43  34  70 CALM      30.15R
LEADVILLE      CLOUDY    36  31  82 CALM      30.22S
MONARCH PASS   CLOUDY    32  30  93 CALM      30.41F
SALIDA         CLOUDY    48  42  80 CALM      30.24S
SUNLIGHT       CLOUDY    36  36 100 CALM      30.29F FOG
WILKERSON PASS HVY SNOW  32  32 100 E8        30.33S VSB<1/4 WCI  25
$$

COZ069>075-040800-
...SAN LUIS VALLEY/SANGRE DE CRISTO MOUNTAINS...

CITY           SKY/WX    TMP DP  RH WIND       PRES   REMARKS
ALAMOSA        MOCLDY    44  37  76 SW6       30.14S
LA VETA PASS   FOG       36  36 100 MISG      30.26F VSB 1/4
SAGUACHE       CLOUDY    45  36  70 NW8       30.17S
$$

COZ035-036-038>040-040800-
...NORTHERN COLORADO FRONT RANGE...

CITY           SKY/WX    TMP DP  RH WIND       PRES   REMARKS
DENVER INTL AP CLOUDY    52  45  77 SW7       30.09R
DMNS CITY PARK   N/A     52  43  71 SE3       30.08S
AURORA         MOCLDY    51  45  81 S6        30.11R
FRONT RANGE AP NOT AVBL
ERIE MUNI ARPT PTCLDY    48  45  87 CALM      30.07F
BOULDER MUN AP MOCLDY    52  45  76 W7        30.07F
CENTENNIAL     MOCLDY    51  43  74 SW6       30.10S
BROOMFIELD     CLOUDY    50  43  76 W8        30.09F
FORT COLLINS   PTCLDY    50  45  81 S6        30.09R
LONGMONT       PTCLDY    49  45  86 NW8       30.09F
$$

COZ041-046-047-076>085-087-088-040800-
...PIKES PEAK/PALMER DIVIDE AND SOUTHERN FOOTHILLS...

CITY           SKY/WX    TMP DP  RH WIND       PRES   REMARKS
COLO. SPRINGS  LGT RAIN  52  44  74 NW8       30.14R
A. F. ACADEMY  DRIZZLE   50  43  76 VRB2      30.14R
ELLICOTT       CLOUDY   N/A N/A N/A E13       30.09R
FALCON         CLOUDY    49  39  68 NW3       30.15S
FORT CARSON    RAIN      51  46  84 NW6       30.11R
LIMON          CLOUDY    49  45  86 N3        30.08S
MONUMENT HILL  CLOUDY    43  41  93 SW5       30.14S
TRINIDAD       CLOUDY    53  43  68 NW10      30.08R
$$

COZ042>045-048>051-090-091-040800-
...NORTHEAST COLORADO...

CITY           SKY/WX    TMP DP  RH WIND       PRES   REMARKS
GREELEY ARPT   CLOUDY    48  43  81 E5        30.09R
AKRON          CLOUDY    53  41  63 E13       30.09R
BURLINGTON     LGT RAIN  57  50  77 NE13      30.05R
WRAY           MOCLDY    58  40  50 E10       30.07R
STERLING       CLOUDY    55  41  58 E7        30.08R
HOLYOKE        NOT AVBL
FORT MORGAN    LGT RAIN  53  -8   8 NE10      30.11R
$$

COZ086-089-092>099-040800-
...SOUTHEAST COLORADO...

CITY           SKY/WX    TMP DP  RH WIND       PRES   REMARKS
PUEBLO         CLOUDY    57  45  64 NW6       30.06S
LA JUNTA       CLOUDY    58  48  69 NE6       29.99F
LAMAR          MOCLDY    58  49  72 NE7       29.96S
SPRINGFIELD      N/A     59  49  69 S5        30.01R
$$



USA.gov is the U.S. government's official web portal to all federal, state and local government web resources and services.